Location: Powder Track
(41.8531°N, 72.3584°W)
Time: 01:46:06
(UTC+00:00)

Vanguard 1 Rocket - Pass Details

Date: 12 August 2021
Orbit: 650 x 4226 km, 34.3° (Epoch: 16 September)

Event Time Altitude Azimuth Distance (km) Brightness Sun altitude
Rises 10:04:52 0° 214° (SW) 7,762 11.6 0.9°
Reaches altitude 10° 10:10:18 10° 208° (SSW) 7,044 11.5 1.9°
Maximum altitude 10:33:05 43° 146° (SE) 5,096 11.5 5.9°
Drops below altitude 10° 10:52:51 10° 84° (E) 6,259 14.7 9.5°
Sets 10:57:13 0° 78° (ENE) 6,883 14.2 10.3°
